Regional Weather Roundup
Issued by NWS Charleston, WV

Home | Current Version | Previous Version | Text Only | Print | Product List | Glossary On
Versions: 1 2 3 4 5 6 7 8 9 10 11 12 13 14 15 16 17 18 19 20 21 22 23 24 25 26 27 28 29 30 31 32 33 34 35 36 37 38 39 40 41 42 43 44 45 46 47 48 49 50
000
ASUS41 KRLX 280610
RWRRLX
West Virginia Regional Weather Roundup
National Weather Service Charleston WV
100 AM EST FRI NOV 28 2014

Note: "fair" indicates few or no clouds below 12,000 feet with no
significant weather and/or obstructions to visibility.

WVZ003-280700-
Northern Panhandle of West Virginia

CITY           SKY/WX    TMP DP  RH WIND       PRES   REMARKS
WHEELING       MOCLDY    28  21  75 W12       30.23S
$$

WVZ009-280700-
Northwest West Virginia

CITY           SKY/WX    TMP DP  RH WIND       PRES   REMARKS
PARKERSBURG    CLOUDY    29  19  66 W9        30.34S
$$

WVZ006-280700-
Western West Virginia

CITY           SKY/WX    TMP DP  RH WIND       PRES   REMARKS
HUNTINGTON     FLURRIES  30  24  78 W9        30.35S
$$

WVZ015-280700-
West Central West Virginia

CITY           SKY/WX    TMP DP  RH WIND       PRES   REMARKS
CHARLESTON     FLURRIES  30  25  81 W8        30.32F
$$

WVZ022-031-280700-
North Central West Virginia

CITY           SKY/WX    TMP DP  RH WIND       PRES   REMARKS
CLARKSBURG     CLOUDY    29  25  85 W7        30.25F
MORGANTOWN     CLOUDY    29  20  69 W7        30.23F
$$

WVZ025-035-042-045-280700-
Southern West Virginia

CITY           SKY/WX    TMP DP  RH WIND       PRES   REMARKS
BECKLEY        LGT SNOW  24  20  84 NW10      30.22S FOG
LOGAN          MIX PCPN  28  25  86 NW7       30.30S
BLUEFIELD      FLURRIES  25  18  74 NW12G21   30.21S
LEWISBURG      LGT SNOW  28  22  75 W7        30.20S
$$

WVZ047-280700-
Northern Mountains of West Virginia

CITY           SKY/WX    TMP DP  RH WIND       PRES   REMARKS
ELKINS         LGT SNOW  26  23  88 W8        30.21S FOG
$$

WVZ052-280700-
Eastern Panhandle of West Virginia

CITY           SKY/WX    TMP DP  RH WIND       PRES   REMARKS
MARTINSBURG    CLEAR     34  19  54 W18G25    30.19S
PETERSBURG     CLOUDY    32  21  62 NE3       30.23S
$$


USA.gov is the U.S. government's official web portal to all federal, state and local government web resources and services.